User: anonymous
Location: Fort Frances
(48.6170°N, 93.4170°W)
Time: 00:22:26
(UTC-05:00)
Language:

Iridium 53 - Orbit

View from above orbital plane
View from above orbital plane
View from above satellite
View from above satellite

Ground track
Ground track

The orbit data is extracted from the following two-line orbital elements,

1 25173U 98010E   14292.84365000  .00000768  00000-0  26725-3 0  9941
2 25173 086.4003 036.3581 0002302 110.5424 005.0449 14.34215697872541
Epoch (UTC): 19 October 2014 20:14:51
Eccentricity: 0.0002302
inclination: 86.4003°
perigee height: 776 km
apogee height: 779 km
right ascension of ascending node: 36.3581°
argument of perigee: 110.5424°
revolutions per day: 14.34215697
mean anomaly at epoch: 5.0449°
orbit number at epoch: 87254

The dashed part of the orbit path shows where the satellite is in the earth's shadow,  

DLR